Flag for Colombia Weather past 2 weeks in Cartagena, Colombia

Now
82 °F

Passing clouds.


Feels Like: 91 °F
Forecast: 80 / 87 °F
Wind: 2 mph from North

Location: Cartagena / Rafael Nunez

Current Time: Sep 20, 2014 at 9:48:56 PM

Latest Report: Sep 20, 2014 at 9:00 PM


Visibility: N/A

Pressure: 29.88 "Hg

Humidity: 84%

Dew point: 77 °F

Location of CartagenaLocation

Historic Weather in Cartagena — Graph

°F

Cartagena temperature yesterday

Maximum temperature yesterday: 90 °F (at 12:00 PM)
Minimum temperature yesterday: 77 °F (at 12:00 AM)
Average temperature yesterday: 84 °F

Past Weeks' High & Low Weather Summary

 TemperatureHumidityPressure
High93 °F (Sep 10, 12:00 PM)100% (Sep 16, 3:00 PM)29.92 "Hg (Sep 16, 3:00 PM)
Low75 °F (Sep 16, 2:00 PM)59% (Sep 6, 11:00 AM)29.70 "Hg (Sep 10, 4:00 PM)
Average84 °F82%29.80 "Hg
* Reported Sep 5 9:00 PM — Sep 20 9:00 PM, Cartagena, Weather by CustomWeather, © 2014

Note: Actual official high and low records may vary slightly from our data, if they occured in-between our weather recording intervals... More about our weather records

Advertising

Cartagena weather history for previous 24 hours

 ConditionsComfort  
Time TempWeatherWind HumidityBarometerVisibility
9:00 PM
Sep 20
82 °FPassing clouds.2 mph84%29.88 "HgN/A
8:00 PM82 °FPassing clouds.3 mph84%29.85 "HgN/A
7:00 PM82 °FPassing clouds.5 mph84%29.81 "HgN/A
6:00 PM84 °FPassing clouds.7 mph79%29.81 "HgN/A
5:00 PM86 °FPartly sunny.7 mph70%29.79 "HgN/A
4:00 PM86 °FScattered clouds.9 mph75%29.79 "HgN/A
3:00 PM88 °FScattered clouds.17 mph70%29.78 "HgN/A
2:00 PM88 °FScattered clouds.9 mph70%29.81 "HgN/A
1:00 PM86 °FScattered clouds.12 mph75%29.82 "HgN/A
8:00 AM86 °FBroken clouds.7 mph75%29.84 "Hg6 mi
7:00 AM82 °FPartly sunny.6 mph84%29.83 "Hg6 mi
6:00 AM81 °FScattered clouds.5 mph89%29.80 "HgN/A
5:00 AM81 °FPassing clouds.7 mph89%29.77 "HgN/A
4:00 AM79 °FPassing clouds.3 mph94%29.77 "HgN/A
3:00 AM81 °FPassing clouds.No wind89%29.79 "HgN/A
2:00 AM81 °FPassing clouds.2 mph89%29.80 "HgN/A
1:00 AM82 °FPassing clouds.2 mph84%29.82 "HgN/A
12:00 AM82 °FPassing clouds.5 mph84%29.84 "HgN/A
11:00 PM
Sep 19
82 °FPassing clouds.7 mph89%29.82 "HgN/A
10:00 PM81 °FPassing clouds.No wind89%29.82 "HgN/A
9:00 PM82 °FPassing clouds.8 mph89%29.83 "HgN/A
Weather by CustomWeather, © 2014

See weather overviewHow to use our weather pages